Wind_Speed
5 7 9 8 9 11 12 13 14 14 13 13 14 15 14 14 15 16 16 16 15 15 15 15 16 16 16 17 18 18 19 19 20 22 23 25 26 25 24 21 21 19 17
4 5 8 9 12 13 12 13 15 16 16 15 14 14 15 15 15 15 16 15 16 15 16 17 17 18 17 18 18 20 20 20 21 23 24 25 27 27 27 26 24 23 22
5 6 7 10 12 12 12 10 12 14 14 13 13 13 13 13 13 14 14 15 16 15 16 17 18 19 19 21 22 22 22 22 22 23 25 25 27 28 29 30 30 28 26
4 4 6 8 10 11 12 12 12 11 12 11 11 11 12 13 13 14 13 13 13 14 15 16 17 18 19 20 22 22 24 24 25 27 29 27 25 27 31 31 33 33 31
5 5 4 6 9 11 10 9 10 9 9 9 10 9 10 11 12 12 12 13 14 15 16 17 18 20 21 22 23 25 26 26 27 27 29 30 28 29 32 32 31 34 35
9 7 7 8 10 8 6 6 7 7 7 7 9 9 9 10 11 12 14 14 15 16 18 19 20 21 22 24 24 25 26 27 29 32 34 31 28 28 31 36 37 37 37
9 8 7 8 7 7 7 7 5 6 7 7 8 9 10 12 13 14 16 16 17 18 19 21 22 22 22 23 23 24 25 27 29 31 33 31 33 32 32 35 44 41 40
10 9 8 7 7 6 6 6 6 6 7 8 10 11 12 14 14 16 17 18 19 21 21 21 21 22 22 23 23 23 24 27 29 31 33 31 31 33 34 35 27 34 29
8 10 10 9 8 6 7 7 7 9 9 10 12 13 13 14 16 17 19 21 21 22 23 24 25 26 26 27 27 29 31 33 32 34 35 32 33 33 35 38 41 35 36
10 10 10 9 9 9 9 8 9 10 11 13 14 14 15 15 19 22 22 25 24 25 25 26 27 29 31 32 32 32 31 33 33 35 36 33 33 33 35 38 43 43 39
9 10 9 10 11 11 10 10 11 13 14 16 15 15 17 18 20 21 22 24 26 29 29 32 33 35 34 34 34 34 33 36 37 40 39 38 40 37 37 39 41 45 43
13 14 9 11 12 11 12 13 15 16 17 17 18 16 19 21 24 23 25 26 27 29 31 31 32 33 35 36 37 39 39 39 40 42 40 39 38 38 38 39 40 44 47
7 13 10 11 16 15 12 13 15 16 19 20 19 19 20 22 25 27 28 28 30 32 33 33 33 35 37 39 41 41 41 39 37 40 41 40 39 38 38 38 39 42 46
10 7 10 13 15 16 15 14 17 15 14 19 20 22 23 24 26 28 28 30 32 32 32 33 36 39 40 40 39 37 35 36 37 41 40 40 38 37 38 38 39 40 43
14 13 11 17 19 16 17 17 19 19 19 18 21 23 25 26 27 27 30 31 30 31 34 36 37 38 39 37 36 36 36 37 39 40 40 39 37 37 37 37 36 37 38
13 12 15 17 22 23 25 25 24 23 18 20 23 25 26 26 25 28 31 29 29 33 35 36 37 38 37 36 36 36 38 40 39 39 38 37 36 35 35 35 35 36 36
11 11 16 20 24 26 30 33 23 22 20 16 22 25 27 25 27 29 29 29 31 34 35 37 37 37 38 38 37 39 40 41 40 38 36 35 33 31 31 31 32 34 34
12 12 17 20 24 26 28 31 18 23 20 14 20 23 25 26 27 30 26 31 32 35 36 36 37 37 38 37 39 42 43 41 39 35 33 32 28 27 28 28 28 30 31
11 12 15 19 24 25 27 32 19 10 7 12 16 20 26 28 26 27 28 33 34 36 36 37 36 38 39 39 41 43 43 39 34 33 30 28 25 24 23 22 22 23 26
13 15 15 20 21 23 25 23 17 12 15 15 19 24 25 26 21 26 30 33 36 36 36 36 38 39 41 43 44 43 41 35 31 31 29 26 23 24 21 20 19 18 19
18 20 18 18 19 23 22 20 16 17 18 21 23 26 22 22 24 27 31 33 36 36 36 38 39 40 43 44 43 41 35 31 31 32 29 25 21 21 19 18 19 19 18
20 20 21 17 21 27 20 24 20 19 22 25 27 25 22 23 26 30 33 34 35 36 37 39 41 43 44 43 42 39 34 31 27 29 29 25 24 24 22 21 20 16 15
21 20 21 20 23 21 23 30 23 20 24 25 26 23 22 25 28 31 32 34 35 37 39 41 42 43 44 42 41 39 34 32 29 28 27 27 26 25 27 26 25 23 21
22 23 23 21 22 23 22 19 12 19 23 23 22 22 23 25 28 31 33 33 37 39 38 39 42 42 43 42 38 35 33 32 31 30 28 26 27 27 29 29 28 26 25
23 29 19 21 23 22 20 13 16 21 18 20 20 21 23 26 28 30 32 34 37 37 37 39 41 41 41 40 37 34 31 31 30 31 30 29 30 28 27 29 30 30 29
21 21 20 22 21 22 18 14 17 18 18 19 20 20 23 26 28 30 32 34 35 36 38 39 41 42 41 39 36 33 32 31 31 30 30 29 31 30 30 29 29 31 31
Wind_Direction
208 222 237 250 257 262 261 253 249 246 247 257 272 283 284 284 282 278 278 280 283 286 290 295 295 293 292 291 289 284 278 275 275 272 269 267 266 267 269 269 270 264 258
225 231 245 260 263 267 273 270 261 257 258 267 275 281 284 286 283 278 278 280 284 284 283 283 286 287 287 287 289 290 286 281 278 276 273 271 270 268 268 266 265 264 261
280 272 261 265 267 268 268 267 263 263 261 266 272 278 283 282 281 279 281 282 283 288 291 291 291 291 292 292 289 287 283 281 280 277 274 269 269 267 266 262 259 259 258
296 273 265 264 266 260 254 254 255 254 262 272 277 280 279 278 277 281 286 291 293 292 291 290 288 285 284 285 286 285 284 281 277 276 276 273 266 269 265 264 264 260 258
324 314 294 275 260 251 251 256 261 261 266 273 277 276 280 286 292 294 294 292 289 292 293 293 293 294 291 288 284 283 281 281 280 276 273 271 272 271 271 269 262 261 257
341 334 307 292 278 271 272 270 267 272 281 284 284 289 293 297 297 297 293 295 296 298 299 300 297 292 290 287 286 284 282 280 277 276 274 275 272 267 262 264 263 255 252
336 332 319 302 288 287 292 287 290 291 291 290 296 301 302 299 299 298 299 306 306 308 307 304 305 302 297 292 289 287 285 282 280 277 274 274 274 271 270 268 266 255 251
349 342 329 309 299 296 286 289 289 295 293 296 298 298 300 302 303 306 308 309 312 312 313 313 313 312 307 302 300 297 294 290 285 281 280 279 274 273 271 269 284 246 263
349 347 338 327 312 303 292 289 292 290 294 296 297 302 303 305 308 310 314 320 324 320 320 318 317 312 307 303 303 301 297 293 291 286 283 280 279 275 271 272 271 265 277
357 342 332 322 314 304 292 300 301 305 308 309 313 309 309 315 316 318 325 326 328 322 319 314 313 309 308 307 304 300 296 293 291 285 284 282 275 272 268 268 270 271 265
350 316 338 326 318 308 315 320 314 315 319 323 319 317 314 316 314 313 323 323 322 321 320 319 317 314 312 311 308 305 303 299 294 291 290 287 282 278 272 267 268 271 270
334 322 341 321 311 319 319 317 315 317 316 323 319 313 308 315 315 319 322 320 320 318 318 316 313 313 311 310 309 307 304 301 298 295 293 288 286 283 278 273 268 266 266
317 318 329 316 311 312 311 303 302 308 312 311 314 309 304 310 317 320 321 322 322 319 317 316 316 313 311 309 306 306 304 302 299 296 296 295 291 286 280 274 268 265 263
320 307 305 319 307 301 304 301 293 283 293 302 311 305 303 309 317 319 320 320 318 317 317 318 314 311 311 308 309 307 306 302 302 301 301 298 294 289 282 274 269 265 261
328 334 343 336 345 326 301 293 290 292 293 293 297 299 300 308 317 318 316 317 317 316 316 315 312 313 311 313 310 307 306 305 304 302 300 298 295 291 285 279 271 268 266
337 344 341 346 346 344 340 326 301 285 281 286 289 295 303 310 315 313 314 314 315 315 314 315 315 315 314 313 311 309 309 307 304 302 301 299 294 290 286 280 272 266 266
328 355 344 344 340 335 335 326 305 285 269 272 287 296 304 309 311 312 313 313 313 314 316 318 318 316 315 314 312 311 310 308 305 305 305 299 294 292 289 284 279 271 267
326 330 331 336 334 334 334 345 315 315 278 263 283 294 300 303 309 310 311 311 315 316 320 319 318 317 316 316 314 314 311 309 307 308 305 299 300 296 291 290 288 278 267
318 316 323 332 334 329 336 345 338 330 318 284 289 298 300 306 313 307 314 315 319 321 322 320 321 319 317 317 315 312 310 309 307 305 299 298 299 297 302 300 303 288 275
310 302 317 327 334 329 329 336 346 318 311 300 299 301 308 311 311 309 316 319 321 324 324 324 323 321 320 319 315 312 310 308 302 299 295 294 293 295 300 304 308 314 295
300 302 312 325 326 330 322 317 316 317 308 305 307 309 312 310 311 315 319 325 326 326 325 326 324 324 322 318 316 315 311 306 300 299 295 293 292 290 293 302 309 314 319
292 295 302 314 322 325 319 306 297 305 305 304 304 315 311 311 313 320 328 330 328 327 328 328 327 326 321 318 318 316 310 304 296 293 292 291 291 289 288 288 288 294 300
291 290 293 307 311 314 309 315 289 281 294 299 306 306 307 315 320 327 332 332 332 331 333 331 328 326 321 321 319 317 312 305 299 291 288 287 285 288 288 292 294 294 299
291 293 289 293 304 312 318 333 290 280 293 300 306 309 315 317 324 332 334 337 335 336 333 330 328 325 324 323 321 319 315 308 302 296 290 287 285 286 289 290 292 292 294
288 284 277 284 299 307 314 324 292 297 305 309 311 309 310 319 328 333 338 341 336 334 333 331 329 326 325 323 321 320 317 312 305 300 297 294 287 286 286 288 291 292 291
275 273 276 285 292 299 308 303 301 302 311 311 309 312 318 321 331 337 341 338 334 333 334 331 330 328 325 321 321 322 318 313 309 304 300 297 295 294 292 289 290 288 288
Height
5894 5895 5896 5897 5898 5899 5899 5900 5900 5901 5901 5901 5901 5901 5900 5900 5900 5899 5898 5898 5898 5897 5896 5896 5895 5894 5893 5892 5892 5892 5891 5890 5890 5889 5889 5888 5886 5886 5887 5888 5888 5889 5890
5893 5893 5895 5896 5897 5898 5899 5899 5899 5900 5900 5900 5899 5898 5898 5898 5897 5896 5896 5896 5896 5895 5894 5892 5891 5891 5889 5889 5888 5888 5888 5887 5887 5886 5885 5885 5885 5884 5884 5884 5884 5884 5886
5893 5894 5894 5895 5897 5897 5897 5897 5896 5897 5897 5897 5896 5895 5895 5894 5894 5894 5893 5893 5892 5891 5891 5890 5889 5889 5887 5887 5885 5884 5884 5884 5883 5882 5881 5882 5882 5881 5881 5880 5881 5881 5881
5893 5893 5894 5894 5895 5895 5895 5894 5894 5894 5895 5895 5894 5893 5893 5893 5892 5891 5890 5889 5889 5888 5887 5887 5886 5885 5884 5883 5882 5880 5880 5879 5879 5878 5877 5877 5878 5877 5876 5876 5877 5877 5878
5892 5893 5893 5893 5894 5893 5892 5892 5892 5893 5893 5893 5893 5891 5890 5890 5889 5889 5888 5887 5887 5885 5884 5883 5882 5881 5881 5879 5879 5878 5877 5876 5875 5874 5872 5872 5875 5875 5871 5871 5871 5871 5871
5892 5892 5892 5892 5893 5892 5891 5891 5892 5892 5892 5891 5891 5889 5889 5888 5888 5887 5886 5885 5884 5883 5881 5880 5879 5878 5877 5876 5875 5873 5872 5871 5870 5868 5866 5868 5869 5868 5865 5862 5861 5860 5862
5892 5892 5892 5892 5891 5890 5890 5890 5890 5890 5889 5889 5889 5887 5887 5887 5885 5885 5883 5882 5881 5879 5878 5877 5876 5874 5873 5872 5870 5869 5868 5866 5864 5862 5860 5862 5860 5860 5858 5855 5849 5852 5855
5890 5890 5890 5890 5889 5889 5889 5890 5889 5889 5888 5888 5887 5886 5885 5884 5882 5881 5881 5879 5877 5876 5874 5872 5871 5869 5868 5866 5865 5864 5862 5861 5858 5855 5853 5855 5855 5853 5851 5849 5838 5844 5852
5889 5889 5889 5888 5889 5889 5889 5889 5889 5889 5887 5887 5886 5884 5883 5881 5880 5879 5878 5875 5874 5872 5870 5867 5866 5864 5862 5860 5859 5858 5856 5852 5851 5848 5847 5850 5849 5847 5844 5842 5839 5845 5845
5886 5886 5888 5887 5887 5887 5888 5887 5887 5886 5885 5884 5883 5881 5880 5879 5877 5875 5874 5870 5869 5867 5864 5863 5862 5859 5856 5853 5852 5851 5849 5845 5844 5839 5838 5841 5840 5839 5835 5834 5832 5833 5837
5885 5883 5885 5885 5885 5885 5885 5885 5884 5884 5882 5881 5880 5879 5877 5877 5876 5874 5871 5868 5865 5862 5860 5857 5854 5852 5850 5847 5845 5843 5841 5838 5835 5831 5832 5831 5829 5830 5829 5827 5824 5823 5823
5882 5882 5884 5882 5881 5881 5881 5881 5881 5881 5879 5878 5876 5876 5874 5873 5871 5869 5867 5864 5861 5859 5855 5853 5850 5847 5844 5842 5838 5835 5833 5830 5826 5822 5821 5820 5820 5820 5819 5817 5816 5814 5812
5886 5880 5882 5882 5878 5877 5878 5878 5877 5877 5876 5874 5874 5872 5870 5869 5867 5864 5862 5860 5857 5854 5851 5847 5844 5841 5839 5836 5832 5829 5825 5822 5818 5812 5811 5811 5809 5809 5808 5806 5805 5803 5801
5881 5880 5878 5877 5877 5875 5874 5876 5875 5875 5875 5870 5870 5868 5866 5865 5865 5862 5858 5855 5852 5849 5845 5842 5839 5836 5833 5828 5825 5821 5818 5814 5810 5805 5804 5801 5798 5796 5794 5793 5792 5792 5791
5874 5873 5872 5872 5871 5871 5870 5872 5869 5869 5869 5867 5865 5864 5863 5862 5861 5857 5854 5852 5848 5844 5841 5838 5834 5830 5825 5822 5818 5814 5810 5806 5802 5797 5794 5792 5789 5786 5783 5781 5781 5781 5780
5873 5870 5868 5868 5867 5868 5866 5865 5863 5862 5862 5863 5861 5860 5859 5858 5856 5854 5851 5847 5844 5840 5836 5832 5828 5823 5818 5815 5810 5806 5802 5797 5793 5788 5785 5782 5779 5777 5773 5771 5770 5769 5769
5872 5871 5867 5865 5865 5863 5862 5859 5854 5854 5856 5857 5856 5855 5855 5854 5852 5850 5847 5843 5839 5835 5831 5826 5821 5816 5812 5808 5803 5798 5793 5788 5784 5780 5777 5774 5771 5768 5765 5761 5759 5758 5758
5871 5870 5867 5865 5863 5863 5860 5855 5851 5849 5849 5854 5853 5854 5852 5851 5848 5844 5843 5838 5835 5829 5825 5820 5815 5810 5804 5800 5794 5789 5783 5779 5774 5771 5769 5766 5763 5759 5757 5755 5751 5749 5749
5869 5869 5867 5864 5862 5859 5858 5854 5850 5850 5850 5851 5851 5851 5848 5846 5844 5839 5838 5833 5829 5824 5818 5813 5808 5803 5797 5793 5787 5780 5775 5771 5766 5764 5762 5760 5757 5753 5750 5748 5745 5741 5740
5865 5864 5863 5862 5859 5857 5856 5855 5853 5852 5851 5850 5849 5848 5846 5840 5840 5836 5834 5828 5823 5818 5812 5807 5802 5797 5791 5785 5779 5772 5766 5763 5760 5757 5755 5754 5751 5747 5745 5742 5739 5736 5734
5862 5860 5860 5859 5856 5854 5853 5853 5852 5851 5850 5847 5846 5843 5840 5836 5834 5832 5829 5824 5817 5812 5806 5801 5796 5791 5783 5777 5770 5764 5759 5756 5753 5750 5748 5746 5744 5743 5740 5738 5735 5731 5729
5858 5856 5857 5856 5854 5851 5849 5849 5850 5849 5847 5844 5840 5838 5835 5833 5830 5827 5823 5818 5812 5805 5800 5795 5790 5785 5778 5770 5763 5757 5752 5749 5748 5743 5740 5740 5738 5736 5734 5732 5730 5730 5727
5856 5854 5854 5853 5852 5849 5846 5844 5843 5845 5843 5841 5837 5834 5833 5829 5825 5822 5818 5812 5806 5799 5794 5789 5783 5778 5771 5764 5757 5752 5747 5742 5740 5737 5734 5733 5732 5730 5726 5724 5722 5721 5719
5851 5851 5850 5851 5850 5846 5843 5839 5839 5840 5839 5836 5833 5829 5827 5825 5822 5817 5812 5806 5800 5796 5790 5784 5777 5771 5764 5757 5751 5746 5741 5736 5733 5730 5728 5726 5724 5722 5720 5718 5715 5714 5711
5847 5847 5848 5847 5846 5845 5840 5839 5838 5836 5834 5831 5829 5825 5824 5820 5817 5812 5807 5802 5797 5791 5784 5777 5771 5764 5757 5751 5745 5739 5736 5731 5728 5723 5721 5718 5716 5715 5714 5711 5708 5705 5704
5845 5846 5846 5844 5842 5841 5838 5836 5834 5832 5830 5827 5824 5822 5819 5814 5812 5807 5801 5797 5792 5786 5779 5772 5765 5758 5751 5745 5739 5734 5730 5726 5721 5718 5715 5712 5707 5707 5704 5702 5701 5698 5695